QFA622 YMML-YBBN

Flight info

Callsign QFA622
Flight time N/A
Altitude 37000
Route ML H66 LAGOB H252 BN
Aircraft B738/M-SDE2E3FGHIRWXY/LB1

Departure

Time N/A
Airport Melbourne Airport (YMML)

Arrival

Time 2026-04-30 04:35
Airport Brisbane International Airport (YBBN)
Time Latitude Longitude Altitude Speed Heading
2026-04-30 03:54 -30.05372 151.87167 37371 ft 490 kts 36°
2026-04-30 03:54 -30.02823 151.89749 37371 ft 490 kts 36°
2026-04-30 03:55 -29.97724 151.94911 37371 ft 490 kts 36°
2026-04-30 03:55 -29.92629 152.00063 37371 ft 489 kts 36°
2026-04-30 03:56 -29.87492 152.05247 37371 ft 489 kts 36°
2026-04-30 03:56 -29.82395 152.10385 37371 ft 489 kts 36°
2026-04-30 03:57 -29.77285 152.15527 37371 ft 490 kts 36°
2026-04-30 03:57 -29.72171 152.20668 37371 ft 490 kts 36°
2026-04-30 03:58 -29.67054 152.25803 37371 ft 489 kts 36°
2026-04-30 03:58 -29.61962 152.30907 37371 ft 489 kts 36°
2026-04-30 03:59 -29.56856 152.36017 37371 ft 490 kts 36°
2026-04-30 03:59 -29.51723 152.41147 37371 ft 489 kts 36°
2026-04-30 04:00 -29.46589 152.46272 37371 ft 489 kts 36°
2026-04-30 04:00 -29.41462 152.51382 37371 ft 489 kts 36°
2026-04-30 04:01 -29.36356 152.56464 37371 ft 489 kts 36°
2026-04-30 04:01 -29.31224 152.61565 37371 ft 489 kts 36°
2026-04-30 04:02 -29.26114 152.66637 37371 ft 489 kts 35°
2026-04-30 04:02 -29.20999 152.71713 37371 ft 489 kts 35°
2026-04-30 04:03 -29.15849 152.76814 37342 ft 490 kts 35°
2026-04-30 04:03 -29.10731 152.81877 37337 ft 489 kts 35°
2026-04-30 04:04 -29.05595 152.86948 37337 ft 489 kts 35°
2026-04-30 04:04 -29.00460 152.92011 37337 ft 489 kts 35°
2026-04-30 04:05 -28.95344 152.97047 37337 ft 489 kts 35°
2026-04-30 04:05 -28.90053 153.01886 37336 ft 484 kts 28°
2026-04-30 04:06 -28.84209 153.05353 37336 ft 469 kts 11°
2026-04-30 04:06 -28.77965 153.07224 37338 ft 463 kts
2026-04-30 04:07 -28.71734 153.08852 37336 ft 463 kts
2026-04-30 04:08 -28.62334 153.11287 37337 ft 462 kts
2026-04-30 04:08 -28.56086 153.12900 37337 ft 463 kts
2026-04-30 04:09 -28.49844 153.14508 37337 ft 463 kts
2026-04-30 04:09 -28.43572 153.16121 37337 ft 463 kts
2026-04-30 04:10 -28.37335 153.17723 37337 ft 463 kts
2026-04-30 04:10 -28.31107 153.19321 37337 ft 463 kts
2026-04-30 04:11 -28.24840 153.20926 37337 ft 463 kts
2026-04-30 04:11 -28.18572 153.22531 37337 ft 463 kts
2026-04-30 04:12 -28.12310 153.24135 37337 ft 463 kts
2026-04-30 04:12 -28.06086 153.25728 37337 ft 463 kts
2026-04-30 04:12 -28.02981 153.26523 37236 ft 454 kts
2026-04-30 04:13 -27.99940 153.27309 36619 ft 447 kts
2026-04-30 04:13 -27.96871 153.28128 35518 ft 461 kts 10°
2026-04-30 04:13 -27.93927 153.29500 34355 ft 471 kts 20°
2026-04-30 04:13 -27.90997 153.31195 33180 ft 474 kts 21°
2026-04-30 04:14 -27.88114 153.32892 32014 ft 476 kts 21°
2026-04-30 04:14 -27.85157 153.34610 30821 ft 479 kts 21°
2026-04-30 04:14 -27.82229 153.36285 29646 ft 480 kts 21°
2026-04-30 04:14 -27.79265 153.37959 28546 ft 471 kts 21°
2026-04-30 04:15 -27.76401 153.39561 27540 ft 461 kts 21°
2026-04-30 04:15 -27.73573 153.41132 26586 ft 450 kts 21°
2026-04-30 04:15 -27.70746 153.42683 25699 ft 453 kts 21°
2026-04-30 04:15 -27.67966 153.44196 24856 ft 442 kts 21°
2026-04-30 04:16 -27.65262 153.45657 24064 ft 434 kts 21°
2026-04-30 04:16 -27.62511 153.47130 23257 ft 438 kts 21°
2026-04-30 04:16 -27.59808 153.48563 22305 ft 429 kts 21°
2026-04-30 04:16 -27.57151 153.49960 21363 ft 418 kts 21°
2026-04-30 04:17 -27.54529 153.51327 20426 ft 410 kts 21°
2026-04-30 04:17 -27.51956 153.52655 19523 ft 412 kts 21°
2026-04-30 04:17 -27.49381 153.53970 18602 ft 401 kts 21°
2026-04-30 04:17 -27.46898 153.55229 17698 ft 392 kts 21°
2026-04-30 04:18 -27.44434 153.56468 16948 ft 378 kts 21°
2026-04-30 04:18 -27.42090 153.57649 16275 ft 365 kts 21°
2026-04-30 04:18 -27.39829 153.58810 15616 ft 353 kts 21°
2026-04-30 04:18 -27.37659 153.59929 14995 ft 341 kts 21°
2026-04-30 04:19 -27.35535 153.61020 14386 ft 330 kts 21°
2026-04-30 04:19 -27.33498 153.62064 13803 ft 321 kts 21°
2026-04-30 04:19 -27.31497 153.63086 13131 ft 316 kts 21°
2026-04-30 04:19 -27.29479 153.64111 12356 ft 314 kts 21°
2026-04-30 04:20 -27.27487 153.64944 11592 ft 310 kts 13°
2026-04-30 04:20 -27.25425 153.65572 10799 ft 308 kts 11°
2026-04-30 04:20 -27.23344 153.66154 9991 ft 307 kts 11°
2026-04-30 04:20 -27.21283 153.66711 9193 ft 305 kts 11°
2026-04-30 04:21 -27.19243 153.67244 8498 ft 300 kts 11°
2026-04-30 04:21 -27.17258 153.67750 8014 ft 288 kts 11°
2026-04-30 04:21 -27.15337 153.68233 7624 ft 275 kts 11°
2026-04-30 04:21 -27.13509 153.68684 7195 ft 269 kts 11°
2026-04-30 04:22 -27.11688 153.69112 6812 ft 264 kts
2026-04-30 04:22 -27.09915 153.68983 6339 ft 258 kts 338°
2026-04-30 04:22 -27.08411 153.67967 5913 ft 249 kts 315°
2026-04-30 04:22 -27.07177 153.66652 5623 ft 246 kts 311°
2026-04-30 04:23 -27.06012 153.65196 5303 ft 246 kts 298°
2026-04-30 04:23 -27.05192 153.62866 4831 ft 237 kts 282°
2026-04-30 04:23 -27.04909 153.61671 4646 ft 237 kts 279°
2026-04-30 04:23 -27.04669 153.59842 4350 ft 236 kts 272°
2026-04-30 04:24 -27.04536 153.58025 4089 ft 235 kts 271°
2026-04-30 04:24 -27.04418 153.56203 3993 ft 228 kts 271°
2026-04-30 04:24 -27.04304 153.54503 4042 ft 213 kts 270°
2026-04-30 04:24 -27.04429 153.52872 4002 ft 209 kts 254°
2026-04-30 04:25 -27.04787 153.51320 3993 ft 208 kts 251°
2026-04-30 04:25 -27.05183 153.49741 3998 ft 209 kts 251°
2026-04-30 04:25 -27.05580 153.48169 3996 ft 209 kts 251°
2026-04-30 04:25 -27.05974 153.46606 3995 ft 209 kts 251°
2026-04-30 04:26 -27.06373 153.45029 3997 ft 209 kts 251°
2026-04-30 04:26 -27.06770 153.43455 3998 ft 209 kts 251°
2026-04-30 04:26 -27.07164 153.41896 3998 ft 209 kts 251°
2026-04-30 04:26 -27.07562 153.40321 3998 ft 209 kts 251°
2026-04-30 04:27 -27.07956 153.38762 3998 ft 209 kts 251°
2026-04-30 04:27 -27.08356 153.37181 3999 ft 209 kts 251°
2026-04-30 04:27 -27.08752 153.35617 3999 ft 209 kts 251°
2026-04-30 04:27 -27.09155 153.34024 3999 ft 209 kts 251°
2026-04-30 04:28 -27.09539 153.32448 3999 ft 209 kts 252°
2026-04-30 04:28 -27.09916 153.30870 3999 ft 209 kts 250°
2026-04-30 04:28 -27.10635 153.29517 3992 ft 203 kts 224°
2026-04-30 04:28 -27.11732 153.28503 4014 ft 203 kts 213°
2026-04-30 04:29 -27.12933 153.27634 3996 ft 202 kts 210°
2026-04-30 04:29 -27.14137 153.26848 3987 ft 193 kts 208°
2026-04-30 04:29 -27.15226 153.26173 3974 ft 167 kts 207°
2026-04-30 04:29 -27.16235 153.25571 4006 ft 162 kts 206°
2026-04-30 04:30 -27.17227 153.24989 4002 ft 160 kts 206°
2026-04-30 04:30 -27.18212 153.24419 4003 ft 160 kts 205°
2026-04-30 04:30 -27.19211 153.23845 4002 ft 160 kts 205°
2026-04-30 04:30 -27.20217 153.23270 3848 ft 161 kts 205°
2026-04-30 04:31 -27.21183 153.22717 3776 ft 152 kts 205°
2026-04-30 04:31 -27.22157 153.22162 3590 ft 163 kts 205°
2026-04-30 04:31 -27.23152 153.21594 3237 ft 155 kts 205°
2026-04-30 04:31 -27.24130 153.21037 2994 ft 159 kts 205°
2026-04-30 04:32 -27.25100 153.20485 2779 ft 157 kts 205°
2026-04-30 04:32 -27.26084 153.19925 2546 ft 158 kts 205°
2026-04-30 04:32 -27.27061 153.19369 2342 ft 158 kts 205°
2026-04-30 04:32 -27.28026 153.18819 2073 ft 147 kts 205°
2026-04-30 04:33 -27.28914 153.18311 1939 ft 142 kts 204°
2026-04-30 04:33 -27.29791 153.17812 1730 ft 143 kts 204°
2026-04-30 04:33 -27.30675 153.17308 1547 ft 143 kts 204°
2026-04-30 04:33 -27.31559 153.16805 1353 ft 142 kts 204°
2026-04-30 04:34 -27.32447 153.16298 1156 ft 142 kts 204°
2026-04-30 04:34 -27.33323 153.15797 964 ft 142 kts 204°
2026-04-30 04:34 -27.34204 153.15294 772 ft 142 kts 204°
2026-04-30 04:34 -27.35085 153.14790 580 ft 142 kts 204°
2026-04-30 04:35 -27.35959 153.14291 392 ft 142 kts 204°
2026-04-30 04:35 -27.36852 153.13792 219 ft 143 kts 204°
2026-04-30 04:35 -27.37722 153.13289 24 ft 134 kts 205°
2026-04-30 04:35 -27.38429 153.12883 21 ft 33 kts 209°
2026-04-30 04:36 -27.38471 153.12805 21 ft 14 kts 290°
2026-04-30 04:36 -27.38429 153.12729 21 ft 8 kts 297°
2026-04-30 04:36 -27.38402 153.12671 21 ft 9 kts 298°
2026-04-30 04:36 -27.38372 153.12602 21 ft 10 kts 284°
2026-04-30 04:37 -27.38405 153.12529 21 ft 11 kts 212°
2026-04-30 04:37 -27.38459 153.12473 21 ft 11 kts 271°
2026-04-30 04:37 -27.38447 153.12376 21 ft 13 kts 273°
2026-04-30 04:37 -27.38415 153.12294 21 ft 10 kts 329°
2026-04-30 04:38 -27.38369 153.12260 21 ft 3 kts 325°